| time (UTC) | temp F | wind direction | speed knots | gust knots | rain 1hr in | rain 24hr in | rain mn in | humidity % | barometer mb |
| 20260509044214 | 53 | 215 | 1.7 | 1.7 | 0.12 | 0.06 | 0.06 | 99 | 1008.8 |
| 20260509043710 | 53 | 223 | 1.7 | 1.7 | 0.12 | 0.05 | 0.05 | 99 | 1008.8 |
| 20260509043206 | 54 | 218 | 1.7 | 1.7 | 0.12 | 0.04 | 0.04 | 99 | 1008.9 |
| 20260509042703 | 54 | 230 | 2.6 | 2.6 | 0.12 | 0.03 | 0.03 | 99 | 1009.0 |
| 20260509042159 | 54 | 247 | 1.7 | 1.7 | 0.05 | 0.02 | 0.02 | 99 | 1009.0 |
| 20260509041656 | 54 | 245 | 2.6 | 2.6 | 0.07 | 0.01 | 0.01 | 99 | 1009.1 |
| 20260509041153 | 54 | 242 | 1.7 | 1.7 | 0.07 | 0.01 | 0.01 | 99 | 1008.9 |
| 20260509040652 | 54 | 289 | 4.3 | 5.2 | 0.05 | 0.00 | 0.00 | 99 | 1009.0 |
| 20260509040148 | 54 | 254 | 3.5 | 4.3 | 0.12 | 0.00 | 0.00 | 99 | 1009.1 |
| 20260509035645 | 54 | 265 | 3.5 | 4.3 | 0.12 | 0.34 | 0.34 | 99 | 1009.3 |
| 20260509035142 | 54 | 269 | 2.6 | 4.3 | 0.12 | 0.33 | 0.33 | 99 | 1009.1 |
| 20260509034639 | 54 | 225 | 2.6 | 2.6 | 0.14 | 0.32 | 0.32 | 99 | 1009.1 |
| 20260509034136 | 54 | 260 | 6.1 | 7.0 | 0.07 | 0.31 | 0.31 | 99 | 1009.3 |
| 20260509033633 | 54 | 250 | 4.3 | 6.1 | 0.05 | 0.30 | 0.30 | 99 | 1009.2 |
| 20260509033130 | 54 | 226 | 2.6 | 2.6 | 0.05 | 0.30 | 0.30 | 99 | 1009.2 |
| 20260509032628 | 54 | 236 | 2.6 | 2.6 | 0.07 | 0.29 | 0.29 | 99 | 1009.3 |
| 20260509032124 | 54 | 245 | 2.6 | 2.6 | 0.07 | 0.29 | 0.29 | 99 | 1009.4 |
| 20260509031622 | 54 | 249 | 1.7 | 1.7 | 0.00 | 0.28 | 0.28 | 99 | 1009.6 |
| 20260509031119 | 54 | 263 | 1.7 | 1.7 | 0.05 | 0.28 | 0.28 | 99 | 1009.3 |
| 20260509030617 | 54 | 280 | 0.9 | 1.7 | 0.05 | 0.28 | 0.28 | 99 | 1009.6 |
| 20260509030114 | 54 | 253 | 0.9 | 0.9 | 0.00 | 0.27 | 0.27 | 99 | 1009.3 |
| 20260509025610 | 54 | 273 | 1.7 | 1.7 | 0.07 | 0.27 | 0.27 | 99 | 1009.5 |
| 20260509025106 | 54 | 270 | 1.7 | 1.7 | 0.07 | 0.27 | 0.27 | 99 | 1009.4 |
| 20260509024602 | 54 | 258 | 2.6 | 2.6 | 0.05 | 0.26 | 0.26 | 99 | 1009.4 |
| 20260509024058 | 54 | 259 | 1.7 | 1.7 | 0.05 | 0.26 | 0.26 | 99 | 1009.4 |
| 20260509023556 | 54 | 267 | 2.6 | 4.3 | 0.07 | 0.25 | 0.25 | 99 | 1009.5 |
| 20260509023053 | 54 | 226 | 0.9 | 1.7 | 0.07 | 0.25 | 0.25 | 99 | 1009.6 |
| 20260509022549 | 54 | 260 | 3.5 | 4.3 | 0.05 | 0.24 | 0.24 | 99 | 1009.5 |
| 20260509022047 | 54 | 264 | 1.7 | 1.7 | 0.05 | 0.24 | 0.24 | 99 | 1009.6 |
| 20260509021544 | 54 | 258 | 3.5 | 5.2 | 0.07 | 0.23 | 0.23 | 99 | 1009.6 |
| 20260509021041 | 54 | 260 | 3.5 | 5.2 | 0.12 | 0.23 | 0.23 | 99 | 1009.7 |
| 20260509020539 | 54 | 253 | 4.3 | 5.2 | 0.19 | 0.22 | 0.22 | 99 | 1009.9 |
| 20260509020035 | 54 | 249 | 4.3 | 5.2 | 0.19 | 0.21 | 0.21 | 99 | 1009.6 |
| 20260509015535 | 54 | 255 | 2.6 | 4.3 | 0.12 | 0.19 | 0.19 | 99 | 1009.5 |
| 20260509015031 | 54 | 230 | 1.7 | 1.7 | 0.12 | 0.18 | 0.18 | 99 | 1009.0 |
| 20260509014528 | 54 | 247 | 1.7 | 1.7 | 0.12 | 0.17 | 0.17 | 99 | 1009.4 |
| 20260509014024 | 54 | 232 | 3.5 | 4.3 | 0.19 | 0.16 | 0.16 | 99 | 1009.2 |
| 20260509013522 | 54 | 262 | 0.9 | 0.9 | 0.17 | 0.15 | 0.15 | 98 | 1009.2 |
| 20260509013017 | 54 | 246 | 2.6 | 2.6 | 0.12 | 0.13 | 0.13 | 98 | 1009.3 |
| 20260509012514 | 54 | 312 | 2.6 | 2.6 | 0.19 | 0.12 | 0.12 | 98 | 1009.1 |
| 20260509012010 | 54 | 304 | 2.6 | 2.6 | 0.17 | 0.11 | 0.11 | 98 | 1009.1 |
| 20260509011509 | 54 | 295 | 4.3 | 5.2 | 0.12 | 0.09 | 0.09 | 97 | 1009.1 |
| 20260509011006 | 54 | 283 | 2.6 | 2.6 | 0.14 | 0.08 | 0.08 | 97 | 1009.2 |
| 20260509010503 | 54 | 319 | 2.6 | 2.6 | 0.07 | 0.07 | 0.07 | 97 | 1008.8 |
| 20260509010000 | 54 | 300 | 2.6 | 2.6 | 0.05 | 0.06 | 0.06 | 96 | 1008.7 |
| 20260509005458 | 54 | 306 | 0.9 | 1.7 | 0.05 | 0.06 | 0.06 | 96 | 1008.5 |
| 20260509004958 | 54 | 305 | 0.0 | 0.0 | 0.07 | 0.05 | 0.05 | 95 | 1008.8 |
| 20260509004455 | 54 | 321 | 0.9 | 0.9 | 0.07 | 0.05 | 0.05 | 95 | 1008.5 |
| 20260509003952 | 55 | 341 | 1.7 | 1.7 | 0.05 | 0.04 | 0.04 | 95 | 1008.9 |
| 20260509003451 | 55 | 309 | 1.7 | 1.7 | 0.12 | 0.04 | 0.04 | 95 | 1009.0 |
| 20260509002947 | 55 | 312 | 2.6 | 2.6 | 0.07 | 0.03 | 0.03 | 94 | 1008.9 |
| 20260509002445 | 55 | 308 | 1.7 | 1.7 | 0.00 | 0.02 | 0.02 | 93 | 1008.9 |
| 20260509001942 | 55 | 284 | 0.0 | 0.0 | 0.00 | 0.02 | 0.02 | 93 | 1008.5 |
| 20260509001438 | 55 | 298 | 0.9 | 0.9 | 0.05 | 0.02 | 0.02 | 93 | 1008.8 |
| 20260509000935 | 55 | 293 | 0.9 | 0.9 | 0.05 | 0.02 | 0.02 | 92 | 1009.0 |
| 20260509000433 | 55 | 285 | 1.7 | 1.7 | 0.00 | 0.01 | 0.01 | 92 | 1008.9 |
| 20260508235928 | 55 | 290 | 1.7 | 1.7 | 0.00 | 0.01 | 0.01 | 91 | 1008.9 |
| 20260508235427 | 55 | 281 | 0.9 | 1.7 | 0.00 | 0.01 | 0.01 | 91 | 1008.7 |
| 20260508234923 | 56 | 302 | 1.7 | 4.3 | 0.00 | 0.01 | 0.01 | 90 | 1009.1 |
| 20260508234420 | 56 | 304 | 1.7 | 2.6 | 0.07 | 0.01 | 0.01 | 89 | 1009.1 |
| 20260508233918 | 56 | 323 | 3.5 | 4.3 | 0.07 | 0.01 | 0.01 | 88 | 1008.9 |
| 20260508233417 | 57 | 277 | 4.3 | 4.3 | 0.00 | 0.00 | 0.00 | 86 | 1008.9 |
| 20260508232914 | 57 | 311 | 5.2 | 7.0 | 0.00 | 0.00 | 0.00 | 84 | 1009.3 |
| 20260508232410 | 58 | 277 | 6.1 | 7.0 | 0.00 | 0.00 | 0.00 | 81 | 1009.0 |
| 20260508231908 | 59 | 296 | 7.0 | 7.8 | 0.00 | 0.00 | 0.00 | 78 | 1008.9 |
| 20260508231405 | 59 | 294 | 5.2 | 6.1 | 0.00 | 0.00 | 0.00 | 77 | 1008.8 |
| 20260508230901 | 59 | 319 | 3.5 | 5.2 | 0.00 | 0.00 | 0.00 | 77 | 1008.7 |
| 20260508230358 | 60 | 302 | 6.1 | 7.0 | 0.00 | 0.00 | 0.00 | 74 | 1008.7 |
| 20260508225855 | 60 | 279 | 5.2 | 7.8 | 0.00 | 0.00 | 0.00 | 73 | 1008.3 |
| 20260508225352 | 60 | 280 | 7.0 | 7.8 | 0.00 | 0.00 | 0.00 | 71 | 1008.3 |
| 20260508224850 | 61 | 255 | 1.7 | 1.7 | 0.00 | 0.00 | 0.00 | 70 | 1008.3 |
| 20260508224347 | 60 | 264 | 5.2 | 6.1 | 0.00 | 0.00 | 0.00 | 68 | 1008.3 |
| 20260508223845 | 61 | 245 | 2.6 | 4.3 | 0.00 | 0.00 | 0.00 | 69 | 1008.5 |
| 20260508223342 | 61 | 276 | 3.5 | 6.1 | 0.00 | 0.00 | 0.00 | 70 | 1008.5 |
| 20260508222839 | 61 | 254 | 6.1 | 7.0 | 0.00 | 0.00 | 0.00 | 67 | 1008.4 |
| 20260508222336 | 62 | 249 | 6.1 | 6.1 | 0.00 | 0.00 | 0.00 | 65 | 1008.5 |
| 20260508221833 | 62 | 264 | 6.1 | 7.8 | 0.00 | 0.00 | 0.00 | 64 | 1008.7 |
| 20260508221328 | 62 | 228 | 4.3 | 5.2 | 0.00 | 0.00 | 0.00 | 63 | 1008.4 |
| 20260508220825 | 62 | 249 | 7.8 | 8.7 | 0.00 | 0.00 | 0.00 | 62 | 1008.4 |
| 20260508220321 | 62 | 226 | 1.7 | 1.7 | 0.00 | 0.00 | 0.00 | 64 | 1008.1 |
| 20260508215818 | 62 | 232 | 2.6 | 2.6 | 0.00 | 0.00 | 0.00 | 62 | 1008.1 |
| 20260508215315 | 63 | 228 | 2.6 | 4.3 | 0.00 | 0.00 | 0.00 | 61 | 1008.1 |
| 20260508214812 | 63 | 239 | 1.7 | 1.7 | 0.00 | 0.00 | 0.00 | 61 | 1008.0 |
| 20260508214309 | 63 | 224 | 3.5 | 4.3 | 0.00 | 0.00 | 0.00 | 59 | 1008.2 |
| 20260508213805 | 64 | 247 | 4.3 | 4.3 | 0.00 | 0.00 | 0.00 | 57 | 1008.3 |
| 20260508213302 | 64 | 227 | 4.3 | 5.2 | 0.00 | 0.00 | 0.00 | 57 | 1008.0 |
| 20260508212759 | 64 | 233 | 6.1 | 8.7 | 0.00 | 0.00 | 0.00 | 56 | 1008.2 |
| 20260508212255 | 64 | 188 | 5.2 | 6.1 | 0.00 | 0.00 | 0.00 | 57 | 1008.3 |
| 20260508211750 | 64 | 230 | 4.3 | 5.2 | 0.00 | 0.00 | 0.00 | 56 | 1008.2 |
| 20260508211246 | 64 | 255 | 5.2 | 6.1 | 0.00 | 0.00 | 0.00 | 57 | 1008.4 |
| 20260508210744 | 64 | 240 | 4.3 | 6.1 | 0.00 | 0.00 | 0.00 | 56 | 1008.4 |
| 20260508210241 | 64 | 237 | 4.3 | 5.2 | 0.00 | 0.00 | 0.00 | 56 | 1008.3 |
| 20260508205738 | 64 | 256 | 8.7 | 8.7 | 0.00 | 0.00 | 0.00 | 55 | 1008.4 |
| 20260508205234 | 64 | 227 | 4.3 | 4.3 | 0.00 | 0.00 | 0.00 | 56 | 1008.3 |
| 20260508204731 | 64 | 226 | 4.3 | 5.2 | 0.00 | 0.00 | 0.00 | 56 | 1008.4 |
| 20260508204227 | 64 | 241 | 5.2 | 7.0 | 0.00 | 0.00 | 0.00 | 56 | 1008.7 |
| 20260508203723 | 64 | 258 | 4.3 | 6.1 | 0.00 | 0.00 | 0.00 | 57 | 1008.5 |
| 20260508203220 | 64 | 236 | 4.3 | 5.2 | 0.00 | 0.00 | 0.00 | 56 | 1008.5 |
| 20260508202716 | 64 | 283 | 4.3 | 6.1 | 0.00 | 0.00 | 0.00 | 55 | 1008.8 |
| 20260508202213 | 64 | 233 | 4.3 | 5.2 | 0.00 | 0.00 | 0.00 | 56 | 1008.9 |
| 20260508201710 | 64 | 237 | 2.6 | 2.6 | 0.00 | 0.00 | 0.00 | 57 | 1008.9 |
| 20260508201206 | 64 | 234 | 5.2 | 7.0 | 0.00 | 0.00 | 0.00 | 56 | 1009.1 |
| 20260508200703 | 64 | 225 | 5.2 | 6.1 | 0.00 | 0.00 | 0.00 | 56 | 1009.1 |
| 20260508200159 | 64 | 227 | 3.5 | 4.3 | 0.00 | 0.00 | 0.00 | 57 | 1009.2 |
| 20260508195656 | 64 | 225 | 9.6 | 11.3 | 0.00 | 0.00 | 0.00 | 54 | 1009.2 |
| 20260508195152 | 64 | 236 | 7.0 | 9.6 | 0.00 | 0.00 | 0.00 | 56 | 1009.3 |
| 20260508194649 | 64 | 250 | 9.6 | 11.3 | 0.00 | 0.00 | 0.00 | 54 | 1009.6 |
| 20260508194146 | 64 | 229 | 7.8 | 8.7 | 0.00 | 0.00 | 0.00 | 55 | 1009.4 |
| 20260508193643 | 63 | 243 | 7.0 | 7.8 | 0.00 | 0.00 | 0.00 | 57 | 1009.6 |
| 20260508193140 | 63 | 230 | 5.2 | 6.1 | 0.00 | 0.00 | 0.00 | 57 | 1009.8 |
| 20260508192636 | 63 | 235 | 2.6 | 4.3 | 0.00 | 0.00 | 0.00 | 58 | 1009.8 |
| 20260508192134 | 63 | 244 | 2.6 | 2.6 | 0.00 | 0.00 | 0.00 | 59 | 1009.8 |
| 20260508191630 | 63 | 252 | 4.3 | 6.1 | 0.00 | 0.00 | 0.00 | 57 | 1010.0 |
| 20260508191127 | 63 | 257 | 5.2 | 6.1 | 0.00 | 0.00 | 0.00 | 59 | 1010.1 |
| 20260508190625 | 63 | 239 | 3.5 | 5.2 | 0.00 | 0.00 | 0.00 | 59 | 1010.2 |
| 20260508190121 | 63 | 230 | 8.7 | 11.3 | 0.00 | 0.00 | 0.00 | 57 | 1010.1 |
| 20260508185618 | 63 | 258 | 4.3 | 6.1 | 0.00 | 0.00 | 0.00 | 58 | 1010.2 |
| 20260508185115 | 63 | 250 | 4.3 | 6.1 | 0.00 | 0.00 | 0.00 | 59 | 1010.1 |
| 20260508184612 | 63 | 248 | 9.6 | 12.2 | 0.00 | 0.00 | 0.00 | 56 | 1010.2 |
| 20260508184109 | 63 | 258 | 3.5 | 4.3 | 0.00 | 0.00 | 0.00 | 59 | 1010.1 |
| 20260508183606 | 63 | 196 | 11.3 | 14.8 | 0.00 | 0.00 | 0.00 | 56 | 1010.1 |
| 20260508183102 | 63 | 233 | 5.2 | 6.1 | 0.00 | 0.00 | 0.00 | 57 | 1010.3 |
| 20260508182558 | 63 | 244 | 5.2 | 7.8 | 0.00 | 0.00 | 0.00 | 57 | 1010.6 |
| 20260508182055 | 64 | 264 | 7.8 | 8.7 | 0.00 | 0.00 | 0.00 | 56 | 1010.4 |
| 20260508181550 | 64 | 223 | 7.8 | 8.7 | 0.00 | 0.00 | 0.00 | 55 | 1010.2 |
| 20260508181048 | 64 | 257 | 10.4 | 12.2 | 0.00 | 0.00 | 0.00 | 54 | 1010.4 |
| 20260508180544 | 64 | 213 | 10.4 | 12.2 | 0.00 | 0.00 | 0.00 | 54 | 1010.5 |
| 20260508180041 | 64 | 241 | 7.8 | 11.3 | 0.00 | 0.00 | 0.00 | 56 | 1010.4 |
| 20260508175537 | 64 | 251 | 11.3 | 14.8 | 0.00 | 0.00 | 0.00 | 56 | 1010.6 |
| 20260508175035 | 65 | 250 | 7.8 | 11.3 | 0.00 | 0.00 | 0.00 | 57 | 1010.6 |
| 20260508174533 | 65 | 240 | 7.8 | 8.7 | 0.00 | 0.00 | 0.00 | 56 | 1010.6 |
| 20260508174029 | 65 | 236 | 8.7 | 9.6 | 0.00 | 0.00 | 0.00 | 57 | 1010.9 |
| 20260508173526 | 64 | 255 | 8.7 | 9.6 | 0.00 | 0.00 | 0.00 | 59 | 1010.8 |
| 20260508173022 | 64 | 226 | 7.8 | 8.7 | 0.00 | 0.00 | 0.00 | 58 | 1011.0 |
| 20260508172519 | 62 | 226 | 7.8 | 9.6 | 0.00 | 0.00 | 0.00 | 60 | 1011.2 |
| 20260508172015 | 62 | 239 | 8.7 | 11.3 | 0.00 | 0.00 | 0.00 | 61 | 1011.3 |
| 20260508171512 | 61 | 224 | 6.1 | 7.0 | 0.00 | 0.00 | 0.00 | 61 | 1011.4 |
| 20260508171009 | 61 | 228 | 9.6 | 9.6 | 0.00 | 0.00 | 0.00 | 60 | 1011.4 |
| 20260508170506 | 61 | 227 | 7.0 | 7.8 | 0.00 | 0.00 | 0.00 | 61 | 1011.5 |
| 20260508170003 | 61 | 234 | 6.1 | 7.0 | 0.00 | 0.00 | 0.00 | 61 | 1011.7 |
| 20260508165501 | 61 | 233 | 4.3 | 5.2 | 0.00 | 0.00 | 0.00 | 62 | 1011.6 |
| 20260508164956 | 61 | 226 | 7.0 | 7.8 | 0.00 | 0.00 | 0.00 | 60 | 1011.7 |
| 20260508164454 | 61 | 231 | 7.8 | 11.3 | 0.00 | 0.00 | 0.00 | 60 | 1011.8 |
| 20260508163950 | 61 | 216 | 5.2 | 5.2 | 0.00 | 0.00 | 0.00 | 61 | 1011.7 |
| 20260508163448 | 61 | 228 | 7.0 | 7.8 | 0.00 | 0.00 | 0.00 | 60 | 1011.8 |
| 20260508162944 | 61 | 231 | 7.0 | 7.8 | 0.00 | 0.00 | 0.00 | 61 | 1012.0 |
| 20260508162442 | 62 | 237 | 8.7 | 13.0 | 0.00 | 0.00 | 0.00 | 61 | 1012.1 |
| 20260508161938 | 62 | 251 | 7.0 | 8.7 | 0.00 | 0.00 | 0.00 | 61 | 1012.3 |
| 20260508161435 | 62 | 248 | 7.0 | 7.8 | 0.00 | 0.00 | 0.00 | 61 | 1012.0 |
| 20260508160932 | 62 | 230 | 6.1 | 7.0 | 0.00 | 0.00 | 0.00 | 60 | 1012.1 |
| 20260508160432 | 62 | 205 | 8.7 | 11.3 | 0.00 | 0.00 | 0.00 | 59 | 1012.0 |
| 20260508155927 | 62 | 201 | 9.6 | 11.3 | 0.00 | 0.00 | 0.00 | 58 | 1012.0 |
| 20260508155424 | 62 | 233 | 6.1 | 7.0 | 0.00 | 0.00 | 0.00 | 61 | 1012.0 |
| 20260508154921 | 62 | 208 | 9.6 | 11.3 | 0.00 | 0.00 | 0.00 | 58 | 1012.0 |
| 20260508154419 | 63 | 232 | 9.6 | 12.2 | 0.00 | 0.00 | 0.00 | 58 | 1012.3 |
| 20260508153915 | 62 | 246 | 7.0 | 7.8 | 0.00 | 0.00 | 0.00 | 61 | 1012.0 |
| 20260508153412 | 62 | 200 | 10.4 | 13.9 | 0.00 | 0.00 | 0.00 | 58 | 1012.3 |
| 20260508152908 | 62 | 235 | 7.0 | 8.7 | 0.00 | 0.00 | 0.00 | 58 | 1012.1 |
| 20260508152405 | 62 | 228 | 7.8 | 9.6 | 0.00 | 0.00 | 0.00 | 57 | 1012.0 |
| 20260508151902 | 62 | 230 | 7.8 | 11.3 | 0.00 | 0.00 | 0.00 | 62 | 1012.1 |
| 20260508151359 | 61 | 238 | 9.6 | 11.3 | 0.00 | 0.00 | 0.00 | 59 | 1012.3 |
| 20260508150854 | 61 | 239 | 8.7 | 9.6 | 0.00 | 0.00 | 0.00 | 60 | 1012.0 |
| 20260508150352 | 60 | 261 | 6.1 | 7.0 | 0.00 | 0.00 | 0.00 | 59 | 1012.1 |
| 20260508145848 | 60 | 264 | 5.2 | 7.0 | 0.00 | 0.00 | 0.00 | 61 | 1012.5 |
| 20260508145344 | 60 | 242 | 12.2 | 14.8 | 0.00 | 0.00 | 0.00 | 60 | 1012.4 |
| 20260508144841 | 60 | 256 | 5.2 | 6.1 | 0.00 | 0.00 | 0.00 | 62 | 1012.5 |
| 20260508144339 | 60 | 243 | 6.1 | 7.0 | 0.00 | 0.00 | 0.00 | 62 | 1012.5 |
| 20260508143836 | 60 | 254 | 7.0 | 7.8 | 0.00 | 0.00 | 0.00 | 59 | 1012.6 |
| 20260508143333 | 60 | 191 | 8.7 | 9.6 | 0.00 | 0.00 | 0.00 | 59 | 1012.6 |
| 20260508142830 | 60 | 230 | 9.6 | 12.2 | 0.00 | 0.00 | 0.00 | 60 | 1012.5 |
| 20260508142326 | 59 | 248 | 7.8 | 8.7 | 0.00 | 0.00 | 0.00 | 61 | 1012.6 |
| 20260508141823 | 59 | 260 | 9.6 | 11.3 | 0.00 | 0.00 | 0.00 | 61 | 1012.4 |
| 20260508141320 | 59 | 218 | 7.8 | 9.6 | 0.00 | 0.00 | 0.00 | 59 | 1012.7 |
| 20260508140818 | 58 | 220 | 10.4 | 12.2 | 0.00 | 0.00 | 0.00 | 59 | 1012.5 |
| 20260508140314 | 58 | 239 | 10.4 | 13.0 | 0.00 | 0.00 | 0.00 | 59 | 1012.6 |
| 20260508135810 | 58 | 251 | 7.8 | 8.7 | 0.00 | 0.00 | 0.00 | 60 | 1012.6 |
| 20260508135307 | 57 | 243 | 11.3 | 13.0 | 0.00 | 0.00 | 0.00 | 59 | 1012.7 |
| 20260508134802 | 57 | 236 | 7.0 | 8.7 | 0.00 | 0.00 | 0.00 | 60 | 1012.7 |
| 20260508134259 | 57 | 242 | 7.0 | 7.8 | 0.00 | 0.00 | 0.00 | 60 | 1012.8 |
| 20260508133756 | 57 | 245 | 6.1 | 7.8 | 0.00 | 0.00 | 0.00 | 61 | 1012.7 |
| 20260508133254 | 57 | 247 | 9.6 | 12.2 | 0.00 | 0.00 | 0.00 | 60 | 1012.7 |
| 20260508132751 | 56 | 236 | 6.1 | 7.8 | 0.00 | 0.00 | 0.00 | 61 | 1012.8 |
| 20260508132248 | 56 | 237 | 8.7 | 9.6 | 0.00 | 0.00 | 0.00 | 60 | 1012.8 |
| 20260508131744 | 55 | 244 | 5.2 | 6.1 | 0.00 | 0.00 | 0.00 | 62 | 1012.8 |
| 20260508131241 | 55 | 225 | 7.0 | 7.8 | 0.00 | 0.00 | 0.00 | 62 | 1012.8 |
| 20260508130737 | 55 | 227 | 8.7 | 9.6 | 0.00 | 0.00 | 0.00 | 60 | 1012.8 |
| 20260508130235 | 55 | 223 | 5.2 | 7.8 | 0.00 | 0.00 | 0.00 | 62 | 1012.6 |
| 20260508125730 | 55 | 221 | 5.2 | 7.0 | 0.00 | 0.00 | 0.00 | 61 | 1012.8 |
| 20260508125227 | 55 | 238 | 7.8 | 9.6 | 0.00 | 0.00 | 0.00 | 61 | 1012.9 |
| 20260508124725 | 54 | 189 | 7.0 | 7.8 | 0.00 | 0.00 | 0.00 | 62 | 1012.8 |
| 20260508124222 | 54 | 211 | 7.0 | 7.8 | 0.00 | 0.00 | 0.00 | 62 | 1012.7 |
| 20260508123720 | 53 | 251 | 7.8 | 9.6 | 0.00 | 0.00 | 0.00 | 62 | 1012.6 |
| 20260508123218 | 53 | 232 | 5.2 | 6.1 | 0.00 | 0.00 | 0.00 | 65 | 1012.5 |
| 20260508122713 | 53 | 210 | 6.1 | 7.0 | 0.00 | 0.00 | 0.00 | 64 | 1012.4 |
| 20260508122210 | 52 | 213 | 6.1 | 7.8 | 0.00 | 0.00 | 0.00 | 65 | 1012.5 |
| 20260508121709 | 52 | 232 | 6.1 | 7.0 | 0.00 | 0.00 | 0.00 | 65 | 1012.3 |
| 20260508121207 | 51 | 228 | 3.5 | 5.2 | 0.00 | 0.00 | 0.00 | 67 | 1012.5 |
| 20260508120703 | 51 | 230 | 6.1 | 7.8 | 0.00 | 0.00 | 0.00 | 66 | 1012.5 |
| 20260508120202 | 51 | 246 | 7.8 | 8.7 | 0.00 | 0.00 | 0.00 | 66 | 1012.4 |
| 20260508115659 | 51 | 247 | 6.1 | 7.0 | 0.00 | 0.00 | 0.00 | 67 | 1012.5 |
| 20260508115156 | 50 | 225 | 4.3 | 5.2 | 0.00 | 0.00 | 0.00 | 67 | 1012.5 |
| 20260508114653 | 50 | 233 | 4.3 | 5.2 | 0.00 | 0.00 | 0.00 | 68 | 1012.4 |
| 20260508114149 | 50 | 230 | 2.6 | 4.3 | 0.00 | 0.00 | 0.00 | 69 | 1012.5 |
| 20260508113646 | 50 | 199 | 6.1 | 7.0 | 0.00 | 0.00 | 0.00 | 69 | 1012.4 |
| 20260508113144 | 49 | 228 | 5.2 | 6.1 | 0.00 | 0.00 | 0.00 | 69 | 1012.3 |
| 20260508112640 | 49 | 225 | 4.3 | 5.2 | 0.00 | 0.00 | 0.00 | 70 | 1012.4 |
| 20260508112137 | 49 | 249 | 2.6 | 4.3 | 0.00 | 0.00 | 0.00 | 70 | 1012.3 |
| 20260508111634 | 49 | 212 | 4.3 | 5.2 | 0.00 | 0.00 | 0.00 | 71 | 1012.1 |
| 20260508111132 | 48 | 226 | 5.2 | 6.1 | 0.00 | 0.00 | 0.00 | 72 | 1012.0 |
| 20260508110629 | 48 | 228 | 3.5 | 4.3 | 0.00 | 0.00 | 0.00 | 72 | 1012.3 |
| 20260508110125 | 48 | 207 | 4.3 | 5.2 | 0.00 | 0.00 | 0.00 | 72 | 1012.1 |
| 20260508105620 | 48 | 226 | 1.7 | 1.7 | 0.00 | 0.00 | 0.00 | 73 | 1012.1 |
| 20260508105117 | 48 | 213 | 2.6 | 2.6 | 0.00 | 0.00 | 0.00 | 74 | 1011.8 |
| 20260508104615 | 48 | 206 | 2.6 | 2.6 | 0.00 | 0.00 | 0.00 | 74 | 1011.9 |
| 20260508104111 | 48 | 210 | 1.7 | 1.7 | 0.00 | 0.00 | 0.00 | 74 | 1011.9 |
| 20260508103608 | 48 | 203 | 3.5 | 4.3 | 0.00 | 0.00 | 0.00 | 73 | 1011.8 |
| 20260508103106 | 48 | 209 | 3.5 | 5.2 | 0.00 | 0.00 | 0.00 | 73 | 1012.0 |
| 20260508102603 | 48 | 237 | 3.5 | 5.2 | 0.00 | 0.00 | 0.00 | 73 | 1011.8 |
| 20260508102101 | 48 | 218 | 2.6 | 2.6 | 0.00 | 0.00 | 0.00 | 72 | 1012.0 |
| 20260508101558 | 49 | 239 | 3.5 | 4.3 | 0.00 | 0.00 | 0.00 | 72 | 1012.3 |
| 20260508101055 | 49 | 238 | 4.3 | 6.1 | 0.00 | 0.00 | 0.00 | 71 | 1012.3 |
| 20260508100553 | 49 | 226 | 3.5 | 4.3 | 0.00 | 0.00 | 0.00 | 70 | 1012.0 |
| 20260508100050 | 49 | 210 | 4.3 | 5.2 | 0.00 | 0.00 | 0.00 | 70 | 1011.9 |
| 20260508095547 | 50 | 236 | 5.2 | 6.1 | 0.00 | 0.00 | 0.00 | 70 | 1011.8 |
| 20260508095043 | 50 | 218 | 5.2 | 6.1 | 0.00 | 0.00 | 0.00 | 69 | 1011.9 |
| 20260508094541 | 50 | 227 | 3.5 | 4.3 | 0.00 | 0.00 | 0.00 | 69 | 1011.9 |
| 20260508094037 | 50 | 225 | 4.3 | 6.1 | 0.00 | 0.00 | 0.00 | 69 | 1012.0 |
| 20260508093534 | 50 | 234 | 2.6 | 2.6 | 0.00 | 0.00 | 0.00 | 70 | 1012.0 |
| 20260508093032 | 50 | 227 | 1.7 | 1.7 | 0.00 | 0.00 | 0.00 | 69 | 1012.1 |
| 20260508092529 | 50 | 221 | 3.5 | 5.2 | 0.00 | 0.00 | 0.00 | 68 | 1012.1 |
| 20260508092028 | 50 | 230 | 2.6 | 4.3 | 0.00 | 0.00 | 0.00 | 69 | 1012.0 |
| 20260508091525 | 50 | 239 | 2.6 | 2.6 | 0.00 | 0.00 | 0.00 | 69 | 1012.1 |
| 20260508091022 | 50 | 239 | 2.6 | 2.6 | 0.00 | 0.00 | 0.00 | 69 | 1012.1 |
| 20260508090520 | 50 | 234 | 2.6 | 2.6 | 0.00 | 0.00 | 0.00 | 68 | 1012.1 |
| 20260508090016 | 50 | 240 | 2.6 | 2.6 | 0.00 | 0.00 | 0.00 | 68 | 1012.3 |
| 20260508085513 | 50 | 240 | 3.5 | 4.3 | 0.00 | 0.00 | 0.00 | 67 | 1012.0 |
| 20260508085010 | 50 | 233 | 2.6 | 2.6 | 0.00 | 0.00 | 0.00 | 68 | 1012.1 |
| 20260508084507 | 50 | 249 | 2.6 | 4.3 | 0.00 | 0.00 | 0.00 | 68 | 1012.3 |
| 20260508084004 | 50 | 254 | 3.5 | 5.2 | 0.00 | 0.00 | 0.00 | 68 | 1012.3 |
| 20260508083501 | 50 | 235 | 2.6 | 2.6 | 0.00 | 0.00 | 0.00 | 67 | 1012.1 |
| 20260508082956 | 50 | 222 | 2.6 | 4.3 | 0.00 | 0.00 | 0.00 | 68 | 1012.3 |
| 20260508082453 | 50 | 255 | 4.3 | 5.2 | 0.00 | 0.00 | 0.00 | 67 | 1012.3 |
| 20260508081951 | 50 | 236 | 1.7 | 1.7 | 0.00 | 0.00 | 0.00 | 68 | 1012.3 |
| 20260508081448 | 50 | 226 | 2.6 | 2.6 | 0.00 | 0.00 | 0.00 | 68 | 1012.4 |
| 20260508080944 | 50 | 226 | 2.6 | 2.6 | 0.00 | 0.00 | 0.00 | 68 | 1012.1 |
| 20260508080442 | 50 | 253 | 2.6 | 4.3 | 0.00 | 0.00 | 0.00 | 68 | 1012.1 |
| 20260508075939 | 50 | 241 | 0.9 | 1.7 | 0.00 | 0.00 | 0.00 | 68 | 1012.1 |
| 20260508075436 | 50 | 245 | 1.7 | 1.7 | 0.00 | 0.00 | 0.00 | 69 | 1012.0 |
| 20260508074933 | 50 | 247 | 0.0 | 0.0 | 0.00 | 0.00 | 0.00 | 69 | 1012.3 |
| 20260508074431 | 50 | 253 | 2.6 | 2.6 | 0.00 | 0.00 | 0.00 | 69 | 1012.1 |
| 20260508073927 | 50 | 227 | 1.7 | 1.7 | 0.00 | 0.00 | 0.00 | 71 | 1012.5 |
| 20260508073425 | 50 | 239 | 1.7 | 1.7 | 0.00 | 0.00 | 0.00 | 69 | 1012.3 |
| 20260508072922 | 50 | 307 | 0.9 | 0.9 | 0.00 | 0.00 | 0.00 | 71 | 1012.5 |
| 20260508072418 | 50 | 351 | 0.9 | 0.9 | 0.00 | 0.00 | 0.00 | 70 | 1012.6 |
| 20260508071916 | 50 | 321 | 2.6 | 2.6 | 0.00 | 0.00 | 0.00 | 66 | 1012.8 |
| 20260508071413 | 50 | 245 | 1.7 | 1.7 | 0.00 | 0.00 | 0.00 | 67 | 1012.4 |
| 20260508070911 | 50 | 231 | 1.7 | 1.7 | 0.00 | 0.00 | 0.00 | 66 | 1012.4 |
| 20260508070409 | 50 | 235 | 2.6 | 2.6 | 0.00 | 0.00 | 0.00 | 66 | 1012.3 |
| 20260508065906 | 50 | 236 | 6.1 | 7.0 | 0.00 | 0.00 | 0.00 | 66 | 1012.3 |
| 20260508065404 | 50 | 240 | 3.5 | 5.2 | 0.00 | 0.00 | 0.00 | 66 | 1012.3 |
| 20260508064902 | 50 | 220 | 4.3 | 4.3 | 0.00 | 0.00 | 0.00 | 66 | 1012.4 |
| 20260508064359 | 50 | 210 | 3.5 | 4.3 | 0.00 | 0.00 | 0.00 | 66 | 1012.6 |
| 20260508063857 | 50 | 235 | 4.3 | 5.2 | 0.00 | 0.00 | 0.00 | 67 | 1012.6 |
| 20260508063354 | 50 | 246 | 2.6 | 2.6 | 0.00 | 0.00 | 0.00 | 67 | 1012.5 |
| 20260508062851 | 49 | 212 | 4.3 | 5.2 | 0.00 | 0.00 | 0.00 | 67 | 1012.6 |
| 20260508062349 | 50 | 216 | 3.5 | 4.3 | 0.00 | 0.00 | 0.00 | 67 | 1012.6 |
| 20260508061846 | 50 | 243 | 4.3 | 5.2 | 0.00 | 0.00 | 0.00 | 67 | 1012.4 |
| 20260508061343 | 50 | 231 | 3.5 | 5.2 | 0.00 | 0.00 | 0.00 | 66 | 1012.7 |
| 20260508060839 | 50 | 216 | 5.2 | 6.1 | 0.00 | 0.00 | 0.00 | 66 | 1012.6 |
| 20260508060337 | 50 | 222 | 6.1 | 7.0 | 0.00 | 0.00 | 0.00 | 66 | 1012.5 |
| 20260508055832 | 50 | 240 | 5.2 | 7.0 | 0.00 | 0.00 | 0.00 | 67 | 1012.6 |
| 20260508055330 | 50 | 197 | 6.1 | 7.0 | 0.00 | 0.00 | 0.00 | 66 | 1012.4 |
| 20260508054826 | 50 | 233 | 3.5 | 4.3 | 0.00 | 0.00 | 0.00 | 66 | 1012.6 |
| 20260508054324 | 50 | 223 | 6.1 | 7.8 | 0.00 | 0.00 | 0.00 | 66 | 1012.8 |
| 20260508053821 | 50 | 224 | 4.3 | 6.1 | 0.00 | 0.00 | 0.00 | 66 | 1012.7 |
| 20260508053318 | 50 | 230 | 4.3 | 5.2 | 0.00 | 0.00 | 0.00 | 66 | 1012.8 |
| 20260508052815 | 50 | 206 | 5.2 | 7.0 | 0.00 | 0.00 | 0.00 | 65 | 1012.8 |
| 20260508052312 | 50 | 227 | 5.2 | 5.2 | 0.00 | 0.00 | 0.00 | 66 | 1012.9 |
| 20260508051808 | 49 | 227 | 5.2 | 6.1 | 0.00 | 0.00 | 0.00 | 67 | 1012.8 |
| 20260508051304 | 49 | 226 | 5.2 | 6.1 | 0.00 | 0.00 | 0.00 | 68 | 1012.6 |
| 20260508050801 | 49 | 228 | 3.5 | 4.3 | 0.00 | 0.00 | 0.00 | 68 | 1012.8 |
| 20260508050258 | 49 | 215 | 3.5 | 4.3 | 0.00 | 0.00 | 0.00 | 69 | 1012.9 |
| 20260508045753 | 49 | 220 | 3.5 | 4.3 | 0.00 | 0.00 | 0.00 | 69 | 1012.9 |
| 20260508045251 | 49 | 220 | 3.5 | 4.3 | 0.00 | 0.00 | 0.00 | 69 | 1012.9 |
| 20260508044749 | 49 | 228 | 4.3 | 5.2 | 0.00 | 0.00 | 0.00 | 69 | 1013.0 |